Year,Month,Day,Hour,Minute,Value (Times are PST for temperature in C)
2017,03,03,00,00,6.70
2017,03,03,00,01,6.70
2017,03,03,00,02,6.70
2017,03,03,00,03,6.70
2017,03,03,00,04,6.70
2017,03,03,00,05,6.70
2017,03,03,00,06,6.70
2017,03,03,00,07,6.70
2017,03,03,00,08,6.70
2017,03,03,00,09,6.70
2017,03,03,00,10,6.70
2017,03,03,00,11,6.60
2017,03,03,00,12,6.60
2017,03,03,00,13,6.60
2017,03,03,00,14,6.60
2017,03,03,00,15,6.60
2017,03,03,00,16,6.60
2017,03,03,00,17,6.60
2017,03,03,00,18,6.60
2017,03,03,00,19,6.60
2017,03,03,00,20,6.60
2017,03,03,00,21,6.60
2017,03,03,00,22,6.60
2017,03,03,00,23,6.60
2017,03,03,00,24,6.60
2017,03,03,00,25,6.60
2017,03,03,00,26,6.50
2017,03,03,00,27,6.50
2017,03,03,00,28,6.50
2017,03,03,00,29,6.60
2017,03,03,00,30,6.60
2017,03,03,00,31,6.60
2017,03,03,00,32,6.60
2017,03,03,00,33,6.60
2017,03,03,00,34,6.60
2017,03,03,00,35,6.60
2017,03,03,00,36,6.60
2017,03,03,00,37,6.60
2017,03,03,00,38,6.60
2017,03,03,00,39,6.60
2017,03,03,00,40,6.60
2017,03,03,00,41,6.60
2017,03,03,00,42,6.60
2017,03,03,00,43,6.60
2017,03,03,00,44,6.60
2017,03,03,00,45,6.60
2017,03,03,00,46,6.60
2017,03,03,00,47,6.60
2017,03,03,00,48,6.60
2017,03,03,00,49,6.60
2017,03,03,00,50,6.60
2017,03,03,00,51,6.60
2017,03,03,00,52,6.60
2017,03,03,00,53,6.60
2017,03,03,00,54,6.60
2017,03,03,00,55,6.60
2017,03,03,00,56,6.60
2017,03,03,00,57,6.60
2017,03,03,00,58,6.60
2017,03,03,00,59,6.60
2017,03,03,01,00,6.70
2017,03,03,01,01,6.70
2017,03,03,01,02,6.70
2017,03,03,01,03,6.70
2017,03,03,01,04,6.70
2017,03,03,01,05,6.70
2017,03,03,01,06,6.70
2017,03,03,01,07,6.70
2017,03,03,01,08,6.70
2017,03,03,01,09,6.70
2017,03,03,01,10,6.70
2017,03,03,01,11,6.70
2017,03,03,01,12,6.70
2017,03,03,01,13,6.70
2017,03,03,01,14,6.70
2017,03,03,01,15,6.70
2017,03,03,01,16,6.70
2017,03,03,01,17,6.70
2017,03,03,01,18,6.70
2017,03,03,01,19,6.70
2017,03,03,01,20,6.70
2017,03,03,01,21,6.70
2017,03,03,01,22,6.70
2017,03,03,01,23,6.70
2017,03,03,01,24,6.70
2017,03,03,01,25,6.70
2017,03,03,01,26,6.70
2017,03,03,01,27,6.70
2017,03,03,01,28,6.70
2017,03,03,01,29,6.70
2017,03,03,01,30,6.70
2017,03,03,01,31,6.70
2017,03,03,01,32,6.60
2017,03,03,01,33,6.60
2017,03,03,01,34,6.60
2017,03,03,01,35,6.60
2017,03,03,01,36,6.60
2017,03,03,01,37,6.60
2017,03,03,01,38,6.60
2017,03,03,01,39,6.60
2017,03,03,01,40,6.60
2017,03,03,01,41,6.60
2017,03,03,01,42,6.60
2017,03,03,01,43,6.60
2017,03,03,01,44,6.60
2017,03,03,01,45,6.60
2017,03,03,01,46,6.60
2017,03,03,01,47,6.60
2017,03,03,01,48,6.60
2017,03,03,01,49,6.50
2017,03,03,01,50,6.50
2017,03,03,01,51,6.50
2017,03,03,01,52,6.50
2017,03,03,01,53,6.50
2017,03,03,01,54,6.40
2017,03,03,01,55,6.40
2017,03,03,01,56,6.40
2017,03,03,01,57,6.40
2017,03,03,01,58,6.40
2017,03,03,01,59,6.30
2017,03,03,02,00,6.30
2017,03,03,02,01,6.30
2017,03,03,02,02,6.30
2017,03,03,02,03,6.30
2017,03,03,02,04,6.30
2017,03,03,02,05,6.20
2017,03,03,02,06,6.20
2017,03,03,02,07,6.20
2017,03,03,02,08,6.20
2017,03,03,02,09,6.10
2017,03,03,02,10,6.10
2017,03,03,02,11,6.10
2017,03,03,02,12,6.10
2017,03,03,02,13,6.00
2017,03,03,02,14,6.00
2017,03,03,02,15,6.00
2017,03,03,02,16,5.90
2017,03,03,02,17,5.90
2017,03,03,02,18,5.90
2017,03,03,02,19,5.90
2017,03,03,02,20,5.90
2017,03,03,02,21,5.90
2017,03,03,02,22,5.80
2017,03,03,02,23,5.80
2017,03,03,02,24,5.80
2017,03,03,02,25,5.80
2017,03,03,02,26,5.80
2017,03,03,02,27,5.80
2017,03,03,02,28,5.80
2017,03,03,02,29,5.80
2017,03,03,02,30,5.80
2017,03,03,02,31,5.80
2017,03,03,02,32,5.80
2017,03,03,02,33,5.80
2017,03,03,02,34,5.80
2017,03,03,02,35,5.80
2017,03,03,02,36,5.80
2017,03,03,02,37,5.80
2017,03,03,02,38,5.80
2017,03,03,02,39,5.80
2017,03,03,02,40,5.80
2017,03,03,02,41,5.80
2017,03,03,02,42,5.80
2017,03,03,02,43,5.80
2017,03,03,02,44,5.70
2017,03,03,02,45,5.70
2017,03,03,02,46,5.70
2017,03,03,02,47,5.70
2017,03,03,02,48,5.70
2017,03,03,02,49,5.70
2017,03,03,02,50,5.70
2017,03,03,02,51,5.60
2017,03,03,02,52,5.60
2017,03,03,02,53,5.60
2017,03,03,02,54,5.60
2017,03,03,02,55,5.60
2017,03,03,02,56,5.60
2017,03,03,02,57,5.60
2017,03,03,02,58,5.50
2017,03,03,02,59,5.50
2017,03,03,03,00,5.50
2017,03,03,03,01,5.50
2017,03,03,03,02,5.40
2017,03,03,03,03,5.40
2017,03,03,03,04,5.40
2017,03,03,03,05,5.40
2017,03,03,03,06,5.40
2017,03,03,03,07,5.30
2017,03,03,03,08,5.30
2017,03,03,03,09,5.30
2017,03,03,03,10,5.30
2017,03,03,03,11,5.20
2017,03,03,03,12,5.20
2017,03,03,03,13,5.20
2017,03,03,03,14,5.20
2017,03,03,03,15,5.10
2017,03,03,03,16,5.10
2017,03,03,03,17,5.10
2017,03,03,03,18,5.10
2017,03,03,03,19,5.00
2017,03,03,03,20,5.00
2017,03,03,03,21,5.00
2017,03,03,03,22,5.00
2017,03,03,03,23,4.90
2017,03,03,03,24,4.90
2017,03,03,03,25,4.90
2017,03,03,03,26,4.80
2017,03,03,03,27,4.80
2017,03,03,03,28,4.80
2017,03,03,03,29,4.80
2017,03,03,03,30,4.80
2017,03,03,03,31,4.70
2017,03,03,03,32,4.70
2017,03,03,03,33,4.70
2017,03,03,03,34,4.60
2017,03,03,03,35,4.60
2017,03,03,03,36,4.60
2017,03,03,03,37,4.50
2017,03,03,03,38,4.50
2017,03,03,03,39,4.50
2017,03,03,03,40,4.50
2017,03,03,03,41,4.40
2017,03,03,03,42,4.40
2017,03,03,03,43,4.40
2017,03,03,03,44,4.40
2017,03,03,03,45,4.40
2017,03,03,03,46,4.30
2017,03,03,03,47,4.30
2017,03,03,03,48,4.30
2017,03,03,03,49,4.30
2017,03,03,03,50,4.30
2017,03,03,03,51,4.20
2017,03,03,03,52,4.20
2017,03,03,03,53,4.20
2017,03,03,03,54,4.20
2017,03,03,03,55,4.10
2017,03,03,03,56,4.10
2017,03,03,03,57,4.10
2017,03,03,03,58,4.10
2017,03,03,03,59,4.10
2017,03,03,04,00,4.00
2017,03,03,04,01,4.00
2017,03,03,04,02,4.00
2017,03,03,04,03,3.90
2017,03,03,04,04,3.90
2017,03,03,04,05,3.90
2017,03,03,04,06,3.90
2017,03,03,04,07,3.90
2017,03,03,04,08,3.90
2017,03,03,04,09,3.90
2017,03,03,04,10,3.90
2017,03,03,04,11,3.90
2017,03,03,04,12,3.90
2017,03,03,04,13,3.80
2017,03,03,04,14,3.80
2017,03,03,04,15,3.80
2017,03,03,04,16,3.80
2017,03,03,04,17,3.80
2017,03,03,04,18,3.80
2017,03,03,04,19,3.80
2017,03,03,04,20,3.80
2017,03,03,04,21,3.80
2017,03,03,04,22,3.80
2017,03,03,04,23,3.80
2017,03,03,04,24,3.80
2017,03,03,04,25,3.80
2017,03,03,04,26,3.80
2017,03,03,04,27,3.80
2017,03,03,04,28,3.80
2017,03,03,04,29,3.80
2017,03,03,04,30,3.80
2017,03,03,04,31,3.80
2017,03,03,04,32,3.80
2017,03,03,04,33,3.80
2017,03,03,04,34,3.80
2017,03,03,04,35,3.80
2017,03,03,04,36,3.80
2017,03,03,04,37,3.80
2017,03,03,04,38,3.80
2017,03,03,04,39,3.80
2017,03,03,04,40,3.80
2017,03,03,04,41,3.70
2017,03,03,04,42,3.70
2017,03,03,04,43,3.70
2017,03,03,04,44,3.70
2017,03,03,04,45,3.70
2017,03,03,04,46,3.70
2017,03,03,04,47,3.70
2017,03,03,04,48,3.60
2017,03,03,04,49,3.60
2017,03,03,04,50,3.60
2017,03,03,04,51,3.60
2017,03,03,04,52,3.50
2017,03,03,04,53,3.50
2017,03,03,04,54,3.50
2017,03,03,04,55,3.40
2017,03,03,04,56,3.40
2017,03,03,04,57,3.40
2017,03,03,04,58,3.40
2017,03,03,04,59,3.30
2017,03,03,05,00,3.30
2017,03,03,05,01,3.30
2017,03,03,05,02,3.30
2017,03,03,05,03,3.30
2017,03,03,05,04,3.30
2017,03,03,05,05,3.30
2017,03,03,05,06,3.30
2017,03,03,05,07,3.30
2017,03,03,05,08,3.30
2017,03,03,05,09,3.30
2017,03,03,05,10,3.30
2017,03,03,05,11,3.30
2017,03,03,05,12,3.20
2017,03,03,05,13,3.20
2017,03,03,05,14,3.20
2017,03,03,05,15,3.20
2017,03,03,05,16,3.20
2017,03,03,05,17,3.20
2017,03,03,05,18,3.20
2017,03,03,05,19,3.20
2017,03,03,05,20,3.20
2017,03,03,05,21,3.10
2017,03,03,05,22,3.10
2017,03,03,05,23,3.10
2017,03,03,05,24,3.10
2017,03,03,05,25,3.10
2017,03,03,05,26,3.10
2017,03,03,05,27,3.10
2017,03,03,05,28,3.00
2017,03,03,05,29,3.00
2017,03,03,05,30,3.00
2017,03,03,05,31,3.00
2017,03,03,05,32,2.90
2017,03,03,05,33,2.90
2017,03,03,05,34,2.90
2017,03,03,05,35,2.90
2017,03,03,05,36,2.80
2017,03,03,05,37,2.80
2017,03,03,05,38,2.80
2017,03,03,05,39,2.80
2017,03,03,05,40,2.80
2017,03,03,05,41,2.80
2017,03,03,05,42,2.70
2017,03,03,05,43,2.70
2017,03,03,05,44,2.70
2017,03,03,05,45,2.70
2017,03,03,05,46,2.70
2017,03,03,05,47,2.60
2017,03,03,05,48,2.60
2017,03,03,05,49,2.60
2017,03,03,05,50,2.50
2017,03,03,05,51,2.50
2017,03,03,05,52,2.50
2017,03,03,05,53,2.40
2017,03,03,05,54,2.40
2017,03,03,05,55,2.40
2017,03,03,05,56,2.40
2017,03,03,05,57,2.40
2017,03,03,05,58,2.30
2017,03,03,05,59,2.30
2017,03,03,06,00,2.30
2017,03,03,06,01,2.30
2017,03,03,06,02,2.20
2017,03,03,06,03,2.20
2017,03,03,06,04,2.20
2017,03,03,06,05,2.20
2017,03,03,06,06,2.10
2017,03,03,06,07,2.10
2017,03,03,06,08,2.10
2017,03,03,06,09,2.10
2017,03,03,06,10,2.10
2017,03,03,06,11,2.10
2017,03,03,06,12,2.10
2017,03,03,06,13,2.10
2017,03,03,06,14,2.10
2017,03,03,06,15,2.20
2017,03,03,06,16,2.20
2017,03,03,06,17,2.20
2017,03,03,06,18,2.20
2017,03,03,06,19,2.20
2017,03,03,06,20,2.20
2017,03,03,06,21,2.20
2017,03,03,06,22,2.20
2017,03,03,06,23,2.20
2017,03,03,06,24,2.10
2017,03,03,06,25,2.10
2017,03,03,06,26,2.10
2017,03,03,06,27,2.10
2017,03,03,06,28,2.10
2017,03,03,06,29,2.00
2017,03,03,06,30,2.00
2017,03,03,06,31,2.00
2017,03,03,06,32,1.90
2017,03,03,06,33,1.90
2017,03,03,06,34,1.90
2017,03,03,06,35,1.90
2017,03,03,06,36,1.90
2017,03,03,06,37,1.90
2017,03,03,06,38,1.90
2017,03,03,06,39,1.90
2017,03,03,06,40,1.90
2017,03,03,06,41,1.90
2017,03,03,06,42,1.90
2017,03,03,06,43,1.90
2017,03,03,06,44,1.80
2017,03,03,06,45,1.80
2017,03,03,06,46,1.80
2017,03,03,06,47,1.80
2017,03,03,06,48,1.80
2017,03,03,06,49,1.80
2017,03,03,06,50,1.80
2017,03,03,06,51,1.80
2017,03,03,06,52,1.80
2017,03,03,06,53,1.80
2017,03,03,06,54,1.70
2017,03,03,06,55,1.70
2017,03,03,06,56,1.70
2017,03,03,06,57,1.70
2017,03,03,06,58,1.70
2017,03,03,06,59,1.60
2017,03,03,07,00,1.60
2017,03,03,07,01,1.60
2017,03,03,07,02,1.60
2017,03,03,07,03,1.60
2017,03,03,07,04,1.50
2017,03,03,07,05,1.50
2017,03,03,07,06,1.50
2017,03,03,07,07,1.50
2017,03,03,07,08,1.50
2017,03,03,07,09,1.60
2017,03,03,07,10,1.60
2017,03,03,07,11,1.50
2017,03,03,07,12,1.50
2017,03,03,07,13,1.50
2017,03,03,07,14,1.60
2017,03,03,07,15,1.60
2017,03,03,07,16,1.60
2017,03,03,07,17,1.60
2017,03,03,07,18,1.60
2017,03,03,07,19,1.60
2017,03,03,07,20,1.50
2017,03,03,07,21,1.50
2017,03,03,07,22,1.50
2017,03,03,07,23,1.50
2017,03,03,07,24,1.50
2017,03,03,07,25,1.40
2017,03,03,07,26,1.40
2017,03,03,07,27,1.40
2017,03,03,07,28,1.40
2017,03,03,07,29,1.40
2017,03,03,07,30,1.40
2017,03,03,07,31,1.40
2017,03,03,07,32,1.40
2017,03,03,07,33,1.40
2017,03,03,07,34,1.40
2017,03,03,07,35,1.40
2017,03,03,07,36,1.40
2017,03,03,07,37,1.40
2017,03,03,07,38,1.40
2017,03,03,07,39,1.40
2017,03,03,07,40,1.40
2017,03,03,07,41,1.40
2017,03,03,07,42,1.30
2017,03,03,07,43,1.30
2017,03,03,07,44,1.30
2017,03,03,07,45,1.30
2017,03,03,07,46,1.30
2017,03,03,07,47,1.30
2017,03,03,07,48,1.30
2017,03,03,07,49,1.40
2017,03,03,07,50,1.40
2017,03,03,07,51,1.40
2017,03,03,07,52,1.40
2017,03,03,07,53,1.40
2017,03,03,07,54,1.40
2017,03,03,07,55,1.40
2017,03,03,07,56,1.40
2017,03,03,07,57,1.40
2017,03,03,07,58,1.40
2017,03,03,07,59,1.50
2017,03,03,08,00,1.50
2017,03,03,08,01,1.50
2017,03,03,08,02,1.50
2017,03,03,08,03,1.60
2017,03,03,08,04,1.60
2017,03,03,08,05,1.60
2017,03,03,08,06,1.60
2017,03,03,08,07,1.70
2017,03,03,08,08,1.70
2017,03,03,08,09,1.70
2017,03,03,08,10,1.80
2017,03,03,08,11,1.80
2017,03,03,08,12,1.90
2017,03,03,08,13,1.90
2017,03,03,08,14,2.00
2017,03,03,08,15,2.00
2017,03,03,08,16,2.10
2017,03,03,08,17,2.10
2017,03,03,08,18,2.20
2017,03,03,08,19,2.20
2017,03,03,08,20,2.30
2017,03,03,08,21,2.30
2017,03,03,08,22,2.40
2017,03,03,08,23,2.40
2017,03,03,08,24,2.50
2017,03,03,08,25,2.50
2017,03,03,08,26,2.60
2017,03,03,08,27,2.60
2017,03,03,08,28,2.70
2017,03,03,08,29,2.70
2017,03,03,08,30,2.80
2017,03,03,08,31,2.80
2017,03,03,08,32,2.90
2017,03,03,08,33,2.90
2017,03,03,08,34,3.00
2017,03,03,08,35,3.00
2017,03,03,08,36,3.10
2017,03,03,08,37,3.10
2017,03,03,08,38,3.20
2017,03,03,08,39,3.20
2017,03,03,08,40,3.30
2017,03,03,08,41,3.40
2017,03,03,08,42,3.40
2017,03,03,08,43,3.50
2017,03,03,08,44,3.50
2017,03,03,08,45,3.60
2017,03,03,08,46,3.70
2017,03,03,08,47,3.70
2017,03,03,08,48,3.80
2017,03,03,08,49,3.80
2017,03,03,08,50,3.90
2017,03,03,08,51,3.90
2017,03,03,08,52,4.00
2017,03,03,08,53,4.10
2017,03,03,08,54,4.10
2017,03,03,08,55,4.20
2017,03,03,08,56,4.20
2017,03,03,08,57,4.30
2017,03,03,08,58,4.30
2017,03,03,08,59,4.40
2017,03,03,09,00,4.40
2017,03,03,09,01,4.50
2017,03,03,09,02,4.50
2017,03,03,09,03,4.60
2017,03,03,09,04,4.70
2017,03,03,09,05,4.70
2017,03,03,09,06,4.70
2017,03,03,09,07,4.80
2017,03,03,09,08,4.80
2017,03,03,09,09,4.80
2017,03,03,09,10,4.90
2017,03,03,09,11,4.90
2017,03,03,09,12,4.90
2017,03,03,09,13,4.90
2017,03,03,09,14,4.90
2017,03,03,09,15,5.00
2017,03,03,09,16,5.00
2017,03,03,09,17,5.10
2017,03,03,09,18,5.10
2017,03,03,09,19,5.10
2017,03,03,09,20,5.10
2017,03,03,09,21,5.10
2017,03,03,09,22,5.20
2017,03,03,09,23,5.20
2017,03,03,09,24,5.20
2017,03,03,09,25,5.20
2017,03,03,09,26,5.30
2017,03,03,09,27,5.30
2017,03,03,09,28,5.40
2017,03,03,09,29,5.50
2017,03,03,09,30,5.60
2017,03,03,09,31,5.60
2017,03,03,09,32,5.70
2017,03,03,09,33,5.80
2017,03,03,09,34,5.80
2017,03,03,09,35,5.90
2017,03,03,09,36,5.90
2017,03,03,09,37,6.00
2017,03,03,09,38,6.10
2017,03,03,09,39,6.10
2017,03,03,09,40,6.10
2017,03,03,09,41,6.20
2017,03,03,09,42,6.20
2017,03,03,09,43,6.20
2017,03,03,09,44,6.30
2017,03,03,09,45,6.30
2017,03,03,09,46,6.30
2017,03,03,09,47,6.40
2017,03,03,09,48,6.40
2017,03,03,09,49,6.40
2017,03,03,09,50,6.50
2017,03,03,09,51,6.50
2017,03,03,09,52,6.60
2017,03,03,09,53,6.60
2017,03,03,09,54,6.60
2017,03,03,09,55,6.60
2017,03,03,09,56,6.60
2017,03,03,09,57,6.60
2017,03,03,09,58,6.60
2017,03,03,09,59,6.60
2017,03,03,10,00,6.60
2017,03,03,10,01,6.70
2017,03,03,10,02,6.70
2017,03,03,10,03,6.80
2017,03,03,10,04,6.90
2017,03,03,10,05,7.00
2017,03,03,10,06,7.10
2017,03,03,10,07,7.20
2017,03,03,10,08,7.20
2017,03,03,10,09,7.30
2017,03,03,10,10,7.30
2017,03,03,10,11,7.30
2017,03,03,10,12,7.30
2017,03,03,10,13,7.30
2017,03,03,10,14,7.30
2017,03,03,10,15,7.30
2017,03,03,10,16,7.30
2017,03,03,10,17,7.30
2017,03,03,10,18,7.30
2017,03,03,10,19,7.40
2017,03,03,10,20,7.40
2017,03,03,10,21,7.40
2017,03,03,10,22,7.40
2017,03,03,10,23,7.50
2017,03,03,10,24,7.50
2017,03,03,10,25,7.60
2017,03,03,10,26,7.60
2017,03,03,10,27,7.60
2017,03,03,10,28,7.70
2017,03,03,10,29,7.70
2017,03,03,10,30,7.70
2017,03,03,10,31,7.70
2017,03,03,10,32,7.60
2017,03,03,10,33,7.60
2017,03,03,10,34,7.60
2017,03,03,10,35,7.50
2017,03,03,10,36,7.50
2017,03,03,10,37,7.50
2017,03,03,10,38,7.50
2017,03,03,10,39,7.50
2017,03,03,10,40,7.50
2017,03,03,10,41,7.50
2017,03,03,10,42,7.50
2017,03,03,10,43,7.50
2017,03,03,10,44,7.50
2017,03,03,10,45,7.50
2017,03,03,10,46,7.60
2017,03,03,10,47,7.60
2017,03,03,10,48,7.60
2017,03,03,10,49,7.60
2017,03,03,10,50,7.50
2017,03,03,10,51,7.50
2017,03,03,10,52,7.50
2017,03,03,10,53,7.40
2017,03,03,10,54,7.40
2017,03,03,10,55,7.50
2017,03,03,10,56,7.40
2017,03,03,10,57,7.40
2017,03,03,10,58,7.40
2017,03,03,10,59,7.40
2017,03,03,11,00,7.40
2017,03,03,11,01,7.40
2017,03,03,11,02,7.30
2017,03,03,11,03,7.30
2017,03,03,11,04,7.30
2017,03,03,11,05,7.30
2017,03,03,11,06,7.30
2017,03,03,11,07,7.40
2017,03,03,11,08,7.40
2017,03,03,11,09,7.40
2017,03,03,11,10,7.40
2017,03,03,11,11,7.50
2017,03,03,11,12,7.50
2017,03,03,11,13,7.50
2017,03,03,11,14,7.50
2017,03,03,11,15,7.40
2017,03,03,11,16,7.40
2017,03,03,11,17,7.40
2017,03,03,11,18,7.40
2017,03,03,11,19,7.40
2017,03,03,11,20,7.30
2017,03,03,11,21,7.30
2017,03,03,11,22,7.30
2017,03,03,11,23,7.30
2017,03,03,11,24,7.30
2017,03,03,11,25,7.20
2017,03,03,11,26,7.20
2017,03,03,11,27,7.20
2017,03,03,11,28,7.10
2017,03,03,11,29,7.10
2017,03,03,11,30,7.10
2017,03,03,11,31,7.10
2017,03,03,11,32,7.10
2017,03,03,11,33,7.10
2017,03,03,11,34,7.10
2017,03,03,11,35,7.10
2017,03,03,11,36,7.10
2017,03,03,11,37,7.10
2017,03,03,11,38,7.10
2017,03,03,11,39,7.10
2017,03,03,11,40,7.10
2017,03,03,11,41,7.10
2017,03,03,11,42,7.00
2017,03,03,11,43,7.00
2017,03,03,11,44,7.00
2017,03,03,11,45,7.00
2017,03,03,11,46,7.00
2017,03,03,11,47,7.00
2017,03,03,11,48,7.00
2017,03,03,11,49,7.00
2017,03,03,11,50,7.00
2017,03,03,11,51,7.00
2017,03,03,11,52,7.00
2017,03,03,11,53,7.00
2017,03,03,11,54,6.90
2017,03,03,11,55,6.90
2017,03,03,11,56,6.90
2017,03,03,11,57,6.90
2017,03,03,11,58,6.90
2017,03,03,11,59,6.90
2017,03,03,12,00,6.90
2017,03,03,12,01,6.90
2017,03,03,12,02,6.90
2017,03,03,12,03,6.90
2017,03,03,12,04,6.90
2017,03,03,12,05,6.90
2017,03,03,12,06,6.90
2017,03,03,12,07,6.90
2017,03,03,12,08,6.90
2017,03,03,12,09,6.90
2017,03,03,12,10,6.90
2017,03,03,12,11,6.90
2017,03,03,12,12,6.90
2017,03,03,12,13,6.90
2017,03,03,12,14,6.90
2017,03,03,12,15,6.90
2017,03,03,12,16,6.90
2017,03,03,12,17,6.90
2017,03,03,12,18,6.90
2017,03,03,12,19,6.90
2017,03,03,12,20,6.90
2017,03,03,12,21,6.90
2017,03,03,12,22,6.90
2017,03,03,12,23,6.90
2017,03,03,12,24,6.90
2017,03,03,12,25,6.90
2017,03,03,12,26,6.90
2017,03,03,12,27,6.90
2017,03,03,12,28,6.90
2017,03,03,12,29,6.90
2017,03,03,12,30,6.90
2017,03,03,12,31,6.90
2017,03,03,12,32,6.90
2017,03,03,12,33,6.90
2017,03,03,12,34,6.90
2017,03,03,12,35,6.90
2017,03,03,12,36,6.90
2017,03,03,12,37,7.00
2017,03,03,12,38,7.00
2017,03,03,12,39,7.00
2017,03,03,12,40,6.90
2017,03,03,12,41,6.90
2017,03,03,12,42,6.80
2017,03,03,12,43,6.80
2017,03,03,12,44,6.80
2017,03,03,12,45,6.80
2017,03,03,12,46,6.70
2017,03,03,12,47,6.70
2017,03,03,12,48,6.60
2017,03,03,12,49,6.60
2017,03,03,12,50,6.60
2017,03,03,12,51,6.50
2017,03,03,12,52,6.50
2017,03,03,12,53,6.50
2017,03,03,12,54,6.40
2017,03,03,12,55,6.40
2017,03,03,12,56,6.40
2017,03,03,12,57,6.40
2017,03,03,12,58,6.40
2017,03,03,12,59,6.30
2017,03,03,13,00,6.30
2017,03,03,13,01,6.30
2017,03,03,13,02,6.30
2017,03,03,13,03,6.20
2017,03,03,13,04,6.20
2017,03,03,13,05,6.20
2017,03,03,13,06,6.20
2017,03,03,13,07,6.20
2017,03,03,13,08,6.10
2017,03,03,13,09,6.10
2017,03,03,13,10,6.10
2017,03,03,13,11,6.00
2017,03,03,13,12,6.00
2017,03,03,13,13,5.90
2017,03,03,13,14,5.80
2017,03,03,13,15,5.80
2017,03,03,13,16,5.70
2017,03,03,13,17,5.70
2017,03,03,13,18,5.60
2017,03,03,13,19,5.60
2017,03,03,13,20,5.50
2017,03,03,13,21,5.40
2017,03,03,13,22,5.40
2017,03,03,13,23,5.40
2017,03,03,13,24,5.30
2017,03,03,13,25,5.30
2017,03,03,13,26,5.30
2017,03,03,13,27,5.20
2017,03,03,13,28,5.20
2017,03,03,13,29,5.20
2017,03,03,13,30,5.10
2017,03,03,13,31,5.10
2017,03,03,13,32,5.10
2017,03,03,13,33,5.10
2017,03,03,13,34,5.10
2017,03,03,13,35,5.00
2017,03,03,13,36,5.00
2017,03,03,13,37,5.00
2017,03,03,13,38,5.00
2017,03,03,13,39,5.00
2017,03,03,13,40,4.90
2017,03,03,13,41,4.90
2017,03,03,13,42,4.90
2017,03,03,13,43,4.90
2017,03,03,13,44,4.90
2017,03,03,13,45,4.90
2017,03,03,13,46,4.90
2017,03,03,13,47,4.90
2017,03,03,13,48,4.90
2017,03,03,13,49,4.90
2017,03,03,13,50,4.80
2017,03,03,13,51,4.80
2017,03,03,13,52,4.80
2017,03,03,13,53,4.80
2017,03,03,13,54,4.80
2017,03,03,13,55,4.70
2017,03,03,13,56,4.80
2017,03,03,13,57,4.80
2017,03,03,13,58,4.80
2017,03,03,13,59,4.70
2017,03,03,14,00,4.70
2017,03,03,14,01,4.70
2017,03,03,14,02,4.70
2017,03,03,14,03,4.70
2017,03,03,14,04,4.70
2017,03,03,14,05,4.70
2017,03,03,14,06,4.70
2017,03,03,14,07,4.70
2017,03,03,14,08,4.70
2017,03,03,14,09,4.70
2017,03,03,14,10,4.70
2017,03,03,14,11,4.70
2017,03,03,14,12,4.70
2017,03,03,14,13,4.70
2017,03,03,14,14,4.60
2017,03,03,14,15,4.60
2017,03,03,14,16,4.60
2017,03,03,14,17,4.60
2017,03,03,14,18,4.70
2017,03,03,14,19,4.70
2017,03,03,14,20,4.70
2017,03,03,14,21,4.70
2017,03,03,14,22,4.70
2017,03,03,14,23,4.70
2017,03,03,14,24,4.70
2017,03,03,14,25,4.70
2017,03,03,14,26,4.70
2017,03,03,14,27,4.70
2017,03,03,14,28,4.70
2017,03,03,14,29,4.60
2017,03,03,14,30,4.60
2017,03,03,14,31,4.60
2017,03,03,14,32,4.60
2017,03,03,14,33,4.60
2017,03,03,14,34,4.60
2017,03,03,14,35,4.50
2017,03,03,14,36,4.50
2017,03,03,14,37,4.50
2017,03,03,14,38,4.50
2017,03,03,14,39,4.50
2017,03,03,14,40,4.60
2017,03,03,14,41,4.60
2017,03,03,14,42,4.60
2017,03,03,14,43,4.60
2017,03,03,14,44,4.60
2017,03,03,14,45,4.70
2017,03,03,14,46,4.70
2017,03,03,14,47,4.70
2017,03,03,14,48,4.70
2017,03,03,14,49,4.70
2017,03,03,14,50,4.70
2017,03,03,14,51,4.70
2017,03,03,14,52,4.80
2017,03,03,14,53,4.80
2017,03,03,14,54,4.80
2017,03,03,14,55,4.80
2017,03,03,14,56,4.80
2017,03,03,14,57,4.90
2017,03,03,14,58,4.90
2017,03,03,14,59,4.90
2017,03,03,15,00,4.90
2017,03,03,15,01,4.90
2017,03,03,15,02,4.90
2017,03,03,15,03,4.90
2017,03,03,15,04,4.90
2017,03,03,15,05,5.00
2017,03,03,15,06,5.00
2017,03,03,15,07,5.00
2017,03,03,15,08,5.00
2017,03,03,15,09,5.00
2017,03,03,15,10,5.00
2017,03,03,15,11,5.00
2017,03,03,15,12,5.00
2017,03,03,15,13,5.00
2017,03,03,15,14,5.00
2017,03,03,15,15,5.00
2017,03,03,15,16,5.10
2017,03,03,15,17,5.10
2017,03,03,15,18,5.10
2017,03,03,15,19,5.10
2017,03,03,15,20,5.00
2017,03,03,15,21,5.00
2017,03,03,15,22,5.00
2017,03,03,15,23,5.00
2017,03,03,15,24,5.00
2017,03,03,15,25,5.00
2017,03,03,15,26,4.90
2017,03,03,15,27,5.00
2017,03,03,15,28,4.90
2017,03,03,15,29,5.00
2017,03,03,15,30,5.00
2017,03,03,15,31,4.90
2017,03,03,15,32,5.00
2017,03,03,15,33,5.00
2017,03,03,15,34,5.00
2017,03,03,15,35,5.00
2017,03,03,15,36,5.00
2017,03,03,15,37,5.00
2017,03,03,15,38,5.00
2017,03,03,15,39,5.00
2017,03,03,15,40,5.00
2017,03,03,15,41,5.00
2017,03,03,15,42,5.00
2017,03,03,15,43,5.00
2017,03,03,15,44,5.00
2017,03,03,15,45,5.00
2017,03,03,15,46,4.90
2017,03,03,15,47,4.90
2017,03,03,15,48,4.90
2017,03,03,15,49,4.90
2017,03,03,15,50,4.90
2017,03,03,15,51,4.80
2017,03,03,15,52,4.80
2017,03,03,15,53,4.80
2017,03,03,15,54,4.70
2017,03,03,15,55,4.70
2017,03,03,15,56,4.70
2017,03,03,15,57,4.70
2017,03,03,15,58,4.70
2017,03,03,15,59,4.60
2017,03,03,16,00,4.60
2017,03,03,16,01,4.50
2017,03,03,16,02,4.50
2017,03,03,16,03,4.50
2017,03,03,16,04,4.40
2017,03,03,16,05,4.40
2017,03,03,16,06,4.40
2017,03,03,16,07,4.40
2017,03,03,16,08,4.40
2017,03,03,16,09,4.30
2017,03,03,16,10,4.40
2017,03,03,16,11,4.40
2017,03,03,16,12,4.40
2017,03,03,16,13,4.40
2017,03,03,16,14,4.50
2017,03,03,16,15,4.50
2017,03,03,16,16,4.50
2017,03,03,16,17,4.60
2017,03,03,16,18,4.60
2017,03,03,16,19,4.70
2017,03,03,16,20,4.80
2017,03,03,16,21,4.80
2017,03,03,16,22,4.80
2017,03,03,16,23,4.90
2017,03,03,16,24,4.90
2017,03,03,16,25,4.90
2017,03,03,16,26,4.90
2017,03,03,16,27,5.00
2017,03,03,16,28,5.00
2017,03,03,16,29,5.00
2017,03,03,16,30,5.10
2017,03,03,16,31,5.10
2017,03,03,16,32,5.10
2017,03,03,16,33,5.10
2017,03,03,16,34,5.10
2017,03,03,16,35,5.10
2017,03,03,16,36,5.10
2017,03,03,16,37,5.10
2017,03,03,16,38,5.10
2017,03,03,16,39,5.10
2017,03,03,16,40,5.10
2017,03,03,16,41,5.10
2017,03,03,16,42,5.20
2017,03,03,16,43,5.20
2017,03,03,16,44,5.10
2017,03,03,16,45,5.10
2017,03,03,16,46,5.10
2017,03,03,16,47,5.10
2017,03,03,16,48,5.10
2017,03,03,16,49,5.00
2017,03,03,16,50,5.00
2017,03,03,16,51,4.90
2017,03,03,16,52,4.90
2017,03,03,16,53,4.90
2017,03,03,16,54,4.80
2017,03,03,16,55,4.80
2017,03,03,16,56,4.80
2017,03,03,16,57,4.80
2017,03,03,16,58,4.80
2017,03,03,16,59,4.80
2017,03,03,17,00,4.70
2017,03,03,17,01,4.70
2017,03,03,17,02,4.70
2017,03,03,17,03,4.70
2017,03,03,17,04,4.70
2017,03,03,17,05,4.70
2017,03,03,17,06,4.60
2017,03,03,17,07,4.60
2017,03,03,17,08,4.60
2017,03,03,17,09,4.60
2017,03,03,17,10,4.60
2017,03,03,17,11,4.50
2017,03,03,17,12,4.50
2017,03,03,17,13,4.50
2017,03,03,17,14,4.50
2017,03,03,17,15,4.40
2017,03,03,17,16,4.40
2017,03,03,17,17,4.40
2017,03,03,17,18,4.40
2017,03,03,17,19,4.40
2017,03,03,17,20,4.40
2017,03,03,17,21,4.40
2017,03,03,17,22,4.40
2017,03,03,17,23,4.30
2017,03,03,17,24,4.30
2017,03,03,17,25,4.30
2017,03,03,17,26,4.30
2017,03,03,17,27,4.30
2017,03,03,17,28,4.30
2017,03,03,17,29,4.30
2017,03,03,17,30,4.30
2017,03,03,17,31,4.20
2017,03,03,17,32,4.20
2017,03,03,17,33,4.20
2017,03,03,17,34,4.20
2017,03,03,17,35,4.20
2017,03,03,17,36,4.20
2017,03,03,17,37,4.20
2017,03,03,17,38,4.20
2017,03,03,17,39,4.20
2017,03,03,17,40,4.20
2017,03,03,17,41,4.20
2017,03,03,17,42,4.10
2017,03,03,17,43,4.10
2017,03,03,17,44,4.10
2017,03,03,17,45,4.10
2017,03,03,17,46,4.10
2017,03,03,17,47,4.10
2017,03,03,17,48,4.10
2017,03,03,17,49,4.10
2017,03,03,17,50,4.10
2017,03,03,17,51,4.10
2017,03,03,17,52,4.10
2017,03,03,17,53,4.10
2017,03,03,17,54,4.00
2017,03,03,17,55,4.00
2017,03,03,17,56,4.00
2017,03,03,17,57,4.00
2017,03,03,17,58,3.90
2017,03,03,17,59,3.90
2017,03,03,18,00,3.90
2017,03,03,18,01,3.90
2017,03,03,18,02,3.90
2017,03,03,18,03,3.90
2017,03,03,18,04,3.90
2017,03,03,18,05,3.80
2017,03,03,18,06,3.80